sat.trackr.live / text

‹ back to catalog

STARLINK-5400

NORAD 54861 · 2022-177AT

PAYLOAD ACTIVE UNKNOWN

§ Identity

Operator
Country
US
Launch date
2022-12-28
Launch site
AFETR
Launch vehicle
Mass (kg)
RCS (m²)

Purposes: comms

External: N2YO · Heavens-Above · Gunter

§ Orbital elements

Epoch: 2026-09-19T22:45:51.963840Z

Period
94.27 min
Inclination
43.0038°
Eccentricity
0.0001230
Mean motion
15.27576478 rev/d
Perigee alt
482.2 km
Apogee alt
483.9 km
Semi-major
6,861.2 km
B*
1.8524e-6
RAAN
104.2031°
Arg perigee
276.7891°
Mean anomaly
83.2821°
Rev number
20,680

§ Raw data

STARLINK-54001 54861U 22177AT  26262.94851810 -.00000211  00000+0  18524-5 0  99962 54861  43.0038 104.2031 0001230 276.7891  83.2821 15.27576478206803

JSON: /api/v1/satellites/54861 · /tle

For live sub-satellite position, see the globe view (requires WebGL).

§ Visibility from observer

Set your observer location to see the next 7 days of passes ≥ 10°. The values pass through the URL so the page stays shareable.

No JS? Fill the form by hand. The geolocation button needs JavaScript.